Time,TemperatureF,DewpointF,PressureIn,WindDirection,WindDirectionDegrees,WindSpeedMPH,WindSpeedGustMPH,Humidity,HourlyPrecipIn,Conditions,Clouds,dailyrainin,SoftwareType,DateUTC
2013-01-29 15:30:00,64.6,31.6,29.51,WNW,292,16.0,33.0,29,0.00,,---,0.00,VWS V14.01,2013-01-29 21:30:00,
2013-01-29 16:30:00,64.3,28.7,29.54,WSW,255,13.0,18.0,26,0.00,,---,0.00,VWS V14.01,2013-01-29 22:30:00,
2013-01-29 16:31:00,64.3,28.7,29.54,West,262,8.0,15.0,26,0.00,,---,0.00,VWS V14.01,2013-01-29 22:31:00,
2013-01-29 16:34:00,64.1,28.5,29.55,West,259,7.0,15.0,26,0.00,,---,0.00,VWS V14.01,2013-01-29 22:34:00,
2013-01-29 16:37:00,63.6,28.1,29.55,West,264,11.0,19.0,26,0.00,,---,0.00,VWS V14.01,2013-01-29 22:37:00,
2013-01-29 16:40:00,63.1,27.7,29.54,WNW,283,20.0,20.0,26,0.00,,---,0.00,VWS V14.01,2013-01-29 22:40:00,
2013-01-29 16:43:00,62.7,28.3,29.54,WSW,246,5.0,20.0,27,0.00,,---,0.00,VWS V14.01,2013-01-29 22:43:00,
2013-01-29 16:46:00,62.3,27.9,29.55,West,267,8.0,20.0,27,0.00,,---,0.00,VWS V14.01,2013-01-29 22:46:00,
2013-01-29 16:49:00,62.1,27.8,29.55,SW,234,9.0,20.0,27,0.00,,---,0.00,VWS V14.01,2013-01-29 22:49:00,
2013-01-29 16:52:00,61.8,26.6,29.55,WSW,250,11.0,20.0,26,0.00,,---,0.00,VWS V14.01,2013-01-29 22:52:00,
2013-01-29 16:55:00,61.8,25.6,29.55,WSW,247,10.0,20.0,25,0.00,,---,0.00,VWS V14.01,2013-01-29 22:55:00,
2013-01-29 16:58:00,61.6,26.4,29.54,WSW,244,8.0,20.0,26,0.00,,---,0.00,VWS V14.01,2013-01-29 22:58:00,
2013-01-29 17:00:00,61.5,26.3,29.54,WSW,252,7.0,20.0,26,0.00,,---,0.00,VWS V14.01,2013-01-29 23:00:00,
2013-01-29 17:01:00,61.4,26.2,29.54,West,261,9.0,16.0,26,0.00,,---,0.00,VWS V14.01,2013-01-29 23:01:00,
2013-01-29 17:04:00,61.2,26.1,29.55,SW,234,8.0,16.0,26,0.00,,---,0.00,VWS V14.01,2013-01-29 23:04:00,
2013-01-29 17:07:00,61.1,26.9,29.55,West,262,7.0,16.0,27,0.00,,---,0.00,VWS V14.01,2013-01-29 23:07:00,
2013-01-29 17:10:00,61.1,26.9,29.54,WSW,257,7.0,16.0,27,0.00,,---,0.00,VWS V14.01,2013-01-29 23:10:00,
2013-01-29 17:13:00,61.1,26.9,29.55,SW,231,7.0,16.0,27,0.00,,---,0.00,VWS V14.01,2013-01-29 23:13:00,
2013-01-29 17:16:00,61.1,26.9,29.55,WSW,245,12.0,16.0,27,0.00,,---,0.00,VWS V14.01,2013-01-29 23:16:00,
2013-01-29 17:19:00,61.1,26.9,29.55,SW,236,6.0,16.0,27,0.00,,---,0.00,VWS V14.01,2013-01-29 23:19:00,
2013-01-29 17:22:00,61.1,26.9,29.56,WSW,250,10.0,16.0,27,0.00,,---,0.00,VWS V14.01,2013-01-29 23:22:00,
2013-01-29 17:25:00,61.1,26.9,29.56,WSW,246,10.0,16.0,27,0.00,,---,0.00,VWS V14.01,2013-01-29 23:25:00,
2013-01-29 17:28:00,61.1,27.8,29.56,WSW,250,8.0,16.0,28,0.00,,---,0.00,VWS V14.01,2013-01-29 23:28:00,
2013-01-29 17:30:00,61.1,26.9,29.56,West,271,7.0,16.0,27,0.00,,---,0.00,VWS V14.01,2013-01-29 23:30:00,
2013-01-29 17:31:00,61.2,26.1,29.56,WSW,237,9.0,14.0,26,0.00,,---,0.00,VWS V14.01,2013-01-29 23:31:00,
2013-01-29 17:34:00,61.3,25.2,29.56,WSW,249,6.0,18.0,25,0.00,,---,0.00,VWS V14.01,2013-01-29 23:34:00,
2013-01-29 17:37:00,61.3,23.2,29.55,WSW,248,17.0,19.0,23,0.00,,---,0.00,VWS V14.01,2013-01-29 23:37:00,
2013-01-29 17:40:00,61.3,23.2,29.55,WSW,248,10.0,19.0,23,0.00,,---,0.00,VWS V14.01,2013-01-29 23:40:00,
2013-01-29 17:43:00,61.1,23.0,29.55,WSW,252,6.0,19.0,23,0.00,,---,0.00,VWS V14.01,2013-01-29 23:43:00,
2013-01-29 17:46:00,60.9,22.9,29.56,WSW,239,15.0,19.0,23,0.00,,---,0.00,VWS V14.01,2013-01-29 23:46:00,
2013-01-29 17:49:00,60.8,22.8,29.56,WSW,246,11.0,19.0,23,0.00,,---,0.00,VWS V14.01,2013-01-29 23:49:00,
2013-01-29 17:52:00,60.6,22.6,29.56,SW,236,8.0,19.0,23,0.00,,---,0.00,VWS V14.01,2013-01-29 23:52:00,
2013-01-29 17:55:00,60.4,23.5,29.56,WSW,241,13.0,19.0,24,0.00,,---,0.00,VWS V14.01,2013-01-29 23:55:00,
2013-01-29 17:58:00,60.3,23.4,29.56,WSW,240,10.0,19.0,24,0.00,,---,0.00,VWS V14.01,2013-01-29 23:58:00,
2013-01-29 18:00:00,60.3,23.4,29.56,West,279,14.0,19.0,24,0.00,,---,0.00,VWS V14.01,2013-01-30 00:00:00,
2013-01-29 18:01:00,60.2,24.3,29.56,West,269,8.0,14.0,25,0.00,,---,0.00,VWS V14.01,2013-01-30 00:01:00,
2013-01-29 18:04:00,60.0,24.1,29.56,WSW,249,9.0,17.0,25,0.00,,---,0.00,VWS V14.01,2013-01-30 00:04:00,
2013-01-29 18:07:00,59.9,24.0,29.57,West,270,11.0,20.0,25,0.00,,---,0.00,VWS V14.01,2013-01-30 00:07:00,
2013-01-29 18:11:00,59.8,23.9,29.57,WSW,246,10.0,20.0,25,0.00,,---,0.00,VWS V14.01,2013-01-30 00:11:00,
2013-01-29 18:14:00,59.6,23.8,29.56,WSW,258,8.0,20.0,25,0.00,,---,0.00,VWS V14.01,2013-01-30 00:14:00,
2013-01-29 18:17:00,59.5,24.6,29.56,WNW,290,12.0,20.0,26,0.00,,---,0.00,VWS V14.01,2013-01-30 00:17:00,
2013-01-29 18:20:00,59.3,24.4,29.57,WSW,247,9.0,20.0,26,0.00,,---,0.00,VWS V14.01,2013-01-30 00:20:00,
2013-01-29 18:23:00,59.3,24.4,29.57,WSW,254,8.0,20.0,26,0.00,,---,0.00,VWS V14.01,2013-01-30 00:23:00,
2013-01-29 18:26:00,59.1,24.3,29.57,SW,236,8.0,20.0,26,0.00,,---,0.00,VWS V14.01,2013-01-30 00:26:00,
2013-01-29 18:29:00,58.9,25.0,29.57,WSW,257,6.0,20.0,27,0.00,,---,0.00,VWS V14.01,2013-01-30 00:29:00,
2013-01-29 18:30:00,58.9,25.0,29.57,West,279,7.0,20.0,27,0.00,,---,0.00,VWS V14.01,2013-01-30 00:30:00,
2013-01-29 18:32:00,58.7,24.8,29.57,WSW,249,11.0,14.0,27,0.00,,---,0.00,VWS V14.01,2013-01-30 00:32:00,
2013-01-29 18:35:00,58.7,24.8,29.58,SW,222,7.0,14.0,27,0.00,,---,0.00,VWS V14.01,2013-01-30 00:35:00,
2013-01-29 18:38:00,58.6,24.8,29.59,WSW,243,10.0,17.0,27,0.00,,---,0.00,VWS V14.01,2013-01-30 00:38:00,
2013-01-29 18:41:00,58.5,24.7,29.59,SW,236,9.0,17.0,27,0.00,,---,0.00,VWS V14.01,2013-01-30 00:41:00,
2013-01-29 18:44:00,58.3,24.5,29.59,WSW,246,8.0,17.0,27,0.00,,---,0.00,VWS V14.01,2013-01-30 00:44:00,
2013-01-29 18:47:00,58.2,24.4,29.59,WSW,255,11.0,17.0,27,0.00,,---,0.00,VWS V14.01,2013-01-30 00:47:00,
2013-01-29 18:50:00,58.4,25.5,29.59,WSW,238,10.0,19.0,28,0.00,,---,0.00,VWS V14.01,2013-01-30 00:50:00,
2013-01-29 18:53:00,58.2,24.4,29.60,WSW,237,19.0,20.0,27,0.00,,---,0.00,VWS V14.01,2013-01-30 00:53:00,
2013-01-29 18:56:00,58.4,24.6,29.59,WSW,243,15.0,23.0,27,0.00,,---,0.00,VWS V14.01,2013-01-30 00:56:00,
2013-01-29 18:59:00,58.5,24.7,29.59,WSW,247,14.0,23.0,27,0.00,,---,0.00,VWS V14.01,2013-01-30 00:59:00,
2013-01-29 19:00:00,58.5,24.7,29.59,WSW,243,14.0,23.0,27,0.00,,---,0.00,VWS V14.01,2013-01-30 01:00:00,
2013-01-29 19:02:00,58.7,23.9,29.59,West,273,15.0,21.0,26,0.00,,---,0.00,VWS V14.01,2013-01-30 01:02:00,
2013-01-29 19:05:00,58.7,23.9,29.59,WSW,244,13.0,22.0,26,0.00,,---,0.00,VWS V14.01,2013-01-30 01:05:00,
2013-01-29 19:08:00,58.6,24.8,29.59,West,263,14.0,25.0,27,0.00,,---,0.00,VWS V14.01,2013-01-30 01:08:00,
2013-01-29 19:11:00,58.4,24.6,29.60,WSW,244,11.0,25.0,27,0.00,,---,0.00,VWS V14.01,2013-01-30 01:11:00,
2013-01-29 19:14:00,58.2,24.4,29.60,SW,234,12.0,25.0,27,0.00,,---,0.00,VWS V14.01,2013-01-30 01:14:00,
2013-01-29 19:17:00,58.2,24.4,29.60,WSW,244,12.0,25.0,27,0.00,,---,0.00,VWS V14.01,2013-01-30 01:17:00,
2013-01-29 19:20:00,58.2,24.4,29.59,WSW,245,12.0,25.0,27,0.00,,---,0.00,VWS V14.01,2013-01-30 01:20:00,
2013-01-29 19:23:00,58.0,24.2,29.59,WNW,299,11.0,25.0,27,0.00,,---,0.00,VWS V14.01,2013-01-30 01:23:00,
2013-01-29 19:26:00,58.2,24.4,29.60,WSW,247,13.0,27.0,27,0.00,,---,0.00,VWS V14.01,2013-01-30 01:26:00,
2013-01-29 19:29:00,58.1,24.3,29.61,WNW,289,10.0,27.0,27,0.00,,---,0.00,VWS V14.01,2013-01-30 01:29:00,
2013-01-29 19:30:00,58.1,24.3,29.61,West,278,13.0,27.0,27,0.00,,---,0.00,VWS V14.01,2013-01-30 01:30:00,
2013-01-29 19:32:00,57.9,25.0,29.61,SW,232,10.0,23.0,28,0.00,,---,0.00,VWS V14.01,2013-01-30 01:32:00,
2013-01-29 19:35:00,57.9,25.0,29.62,WSW,247,14.0,23.0,28,0.00,,---,0.00,VWS V14.01,2013-01-30 01:35:00,
2013-01-29 19:38:00,57.7,24.8,29.62,WSW,257,17.0,24.0,28,0.00,,---,0.00,VWS V14.01,2013-01-30 01:38:00,
2013-01-29 19:41:00,57.8,24.1,29.62,WSW,244,16.0,27.0,27,0.00,,---,0.00,VWS V14.01,2013-01-30 01:41:00,
2013-01-29 19:44:00,57.8,24.1,29.61,West,267,18.0,27.0,27,0.00,,---,0.00,VWS V14.01,2013-01-30 01:44:00,
2013-01-29 19:47:00,57.7,24.0,29.61,SW,236,16.0,27.0,27,0.00,,---,0.00,VWS V14.01,2013-01-30 01:47:00,
2013-01-29 19:50:00,57.5,23.8,29.61,WSW,254,13.0,27.0,27,0.00,,---,0.00,VWS V14.01,2013-01-30 01:50:00,
2013-01-29 19:53:00,57.3,23.6,29.62,SW,232,16.0,27.0,27,0.00,,---,0.00,VWS V14.01,2013-01-30 01:53:00,
2013-01-29 19:56:00,57.2,24.4,29.62,West,268,20.0,27.0,28,0.00,,---,0.00,VWS V14.01,2013-01-30 01:56:00,
2013-01-29 19:59:00,57.0,24.2,29.62,WSW,252,21.0,29.0,28,0.00,,---,0.00,VWS V14.01,2013-01-30 01:59:00,
2013-01-29 20:00:00,57.0,24.2,29.62,WSW,246,28.0,29.0,28,0.00,,---,0.00,VWS V14.01,2013-01-30 02:00:00,
2013-01-29 20:02:00,56.9,23.3,29.62,WSW,255,20.0,28.0,27,0.00,,---,0.00,VWS V14.01,2013-01-30 02:02:00,
2013-01-29 20:06:00,56.6,23.9,29.61,SW,235,20.0,28.0,28,0.00,,---,0.00,VWS V14.01,2013-01-30 02:06:00,
2013-01-29 20:09:00,56.4,23.7,29.61,West,262,24.0,28.0,28,0.00,,---,0.00,VWS V14.01,2013-01-30 02:09:00,
2013-01-29 20:12:00,56.2,23.5,29.62,WSW,242,12.0,28.0,28,0.00,,---,0.00,VWS V14.01,2013-01-30 02:12:00,
2013-01-29 20:15:00,55.9,24.1,29.62,WSW,248,10.0,28.0,29,0.00,,---,0.00,VWS V14.01,2013-01-30 02:15:00,
2013-01-29 20:18:00,55.7,24.0,29.63,WSW,244,6.0,28.0,29,0.00,,---,0.00,VWS V14.01,2013-01-30 02:18:00,
2013-01-29 20:21:00,55.4,24.5,29.63,WSW,246,11.0,28.0,30,0.00,,---,0.00,VWS V14.01,2013-01-30 02:21:00,
2013-01-29 20:24:00,55.5,23.8,29.63,WSW,246,20.0,29.0,29,0.00,,---,0.00,VWS V14.01,2013-01-30 02:24:00,
2013-01-29 20:27:00,55.6,23.9,29.63,WSW,254,15.0,29.0,29,0.00,,---,0.00,VWS V14.01,2013-01-30 02:27:00,
2013-01-29 20:30:00,55.5,23.8,29.63,WSW,253,9.0,29.0,29,0.00,,---,0.00,VWS V14.01,2013-01-30 02:30:00,
2013-01-29 20:33:00,55.3,24.4,29.64,WSW,254,15.0,17.0,30,0.00,,---,0.00,VWS V14.01,2013-01-30 02:33:00,
2013-01-29 20:36:00,55.1,24.2,29.64,WSW,249,16.0,23.0,30,0.00,,---,0.00,VWS V14.01,2013-01-30 02:36:00,
2013-01-29 20:39:00,55.0,24.2,29.64,WNW,291,7.0,23.0,30,0.00,,---,0.00,VWS V14.01,2013-01-30 02:39:00,
2013-01-29 20:42:00,55.0,24.2,29.63,WNW,285,17.0,23.0,30,0.00,,---,0.00,VWS V14.01,2013-01-30 02:42:00,
2013-01-29 20:45:00,54.8,24.0,29.63,WNW,290,13.0,23.0,30,0.00,,---,0.00,VWS V14.01,2013-01-30 02:45:00,
2013-01-29 20:48:00,54.6,24.6,29.63,WSW,252,11.0,23.0,31,0.00,,---,0.00,VWS V14.01,2013-01-30 02:48:00,
2013-01-29 20:51:00,54.6,24.6,29.63,West,262,11.0,23.0,31,0.00,,---,0.00,VWS V14.01,2013-01-30 02:51:00,
2013-01-29 20:54:00,54.5,24.5,29.63,WNW,287,17.0,23.0,31,0.00,,---,0.00,VWS V14.01,2013-01-30 02:54:00,
2013-01-29 20:57:00,54.5,25.3,29.63,WSW,251,12.0,23.0,32,0.00,,---,0.00,VWS V14.01,2013-01-30 02:57:00,
2013-01-29 21:00:00,54.2,25.7,29.64,West,259,12.0,23.0,33,0.00,,---,0.00,VWS V14.01,2013-01-30 03:00:00,
2013-01-29 21:03:00,54.1,26.4,29.64,WSW,257,9.0,21.0,34,0.00,,---,0.00,VWS V14.01,2013-01-30 03:03:00,
2013-01-29 21:06:00,53.9,26.9,29.64,WSW,240,10.0,21.0,35,0.00,,---,0.00,VWS V14.01,2013-01-30 03:06:00,
2013-01-29 21:09:00,53.6,27.3,29.64,West,276,8.0,21.0,36,0.00,,---,0.00,VWS V14.01,2013-01-30 03:09:00,
2013-01-29 21:12:00,53.5,27.2,29.64,WSW,254,8.0,21.0,36,0.00,,---,0.00,VWS V14.01,2013-01-30 03:12:00,
2013-01-29 21:15:00,53.3,27.0,29.64,WNW,296,11.0,21.0,36,0.00,,---,0.00,VWS V14.01,2013-01-30 03:15:00,
2013-01-29 21:18:00,53.3,27.7,29.64,West,279,17.0,21.0,37,0.00,,---,0.00,VWS V14.01,2013-01-30 03:18:00,
2013-01-29 21:21:00,53.2,27.6,29.64,WSW,257,10.0,21.0,37,0.00,,---,0.00,VWS V14.01,2013-01-30 03:21:00,
2013-01-29 21:24:00,53.2,27.6,29.64,WSW,247,10.0,21.0,37,0.00,,---,0.00,VWS V14.01,2013-01-30 03:24:00,
2013-01-29 21:27:00,53.1,27.5,29.64,WSW,252,10.0,21.0,37,0.00,,---,0.00,VWS V14.01,2013-01-30 03:27:00,
2013-01-29 21:30:00,52.9,28.0,29.64,WSW,251,15.0,21.0,38,0.00,,---,0.00,VWS V14.01,2013-01-30 03:30:00,
2013-01-29 21:33:00,52.7,27.8,29.64,West,261,9.0,19.0,38,0.00,,---,0.00,VWS V14.01,2013-01-30 03:33:00,
2013-01-29 21:36:00,52.5,27.6,29.65,West,273,5.0,19.0,38,0.00,,---,0.00,VWS V14.01,2013-01-30 03:36:00,
2013-01-29 21:39:00,52.3,27.5,29.65,West,260,9.0,19.0,38,0.00,,---,0.00,VWS V14.01,2013-01-30 03:39:00,
2013-01-29 21:42:00,52.3,27.5,29.65,WSW,240,10.0,19.0,38,0.00,,---,0.00,VWS V14.01,2013-01-30 03:42:00,
2013-01-29 21:45:00,52.1,27.3,29.65,WSW,239,9.0,19.0,38,0.00,,---,0.00,VWS V14.01,2013-01-30 03:45:00,
2013-01-29 21:48:00,52.0,27.8,29.65,West,261,10.0,19.0,39,0.00,,---,0.00,VWS V14.01,2013-01-30 03:48:00,
2013-01-29 21:51:00,52.0,27.8,29.65,WSW,250,11.0,19.0,39,0.00,,---,0.00,VWS V14.01,2013-01-30 03:51:00,
2013-01-29 21:54:00,51.9,27.7,29.65,WSW,246,12.0,19.0,39,0.00,,---,0.00,VWS V14.01,2013-01-30 03:54:00,
2013-01-29 21:57:00,51.9,27.7,29.65,WSW,244,8.0,19.0,39,0.00,,---,0.00,VWS V14.01,2013-01-30 03:57:00,
2013-01-29 22:00:00,51.8,27.6,29.65,WSW,248,13.0,19.0,39,0.00,,---,0.00,VWS V14.01,2013-01-30 04:00:00,
2013-01-29 22:03:00,51.6,27.5,29.65,WSW,247,8.0,13.0,39,0.00,,---,0.00,VWS V14.01,2013-01-30 04:03:00,
2013-01-29 22:07:00,51.6,27.5,29.65,WSW,246,7.0,18.0,39,0.00,,---,0.00,VWS V14.01,2013-01-30 04:07:00,
2013-01-29 22:10:00,51.5,27.4,29.66,WSW,250,11.0,18.0,39,0.00,,---,0.00,VWS V14.01,2013-01-30 04:10:00,
2013-01-29 22:13:00,51.6,27.5,29.66,WSW,252,9.0,18.0,39,0.00,,---,0.00,VWS V14.01,2013-01-30 04:13:00,
2013-01-29 22:16:00,51.5,27.4,29.66,WSW,252,6.0,18.0,39,0.00,,---,0.00,VWS V14.01,2013-01-30 04:16:00,
2013-01-29 22:19:00,51.4,27.3,29.66,WNW,292,10.0,20.0,39,0.00,,---,0.00,VWS V14.01,2013-01-30 04:19:00,
2013-01-29 22:22:00,51.3,27.2,29.66,WSW,255,10.0,20.0,39,0.00,,---,0.00,VWS V14.01,2013-01-30 04:22:00,
2013-01-29 22:25:00,51.2,27.1,29.66,SW,231,15.0,20.0,39,0.00,,---,0.00,VWS V14.01,2013-01-30 04:25:00,
2013-01-29 22:28:00,51.3,27.2,29.66,WSW,242,13.0,20.0,39,0.00,,---,0.00,VWS V14.01,2013-01-30 04:28:00,
2013-01-29 22:30:00,51.3,27.2,29.66,WSW,249,13.0,20.0,39,0.00,,---,0.00,VWS V14.01,2013-01-30 04:30:00,
2013-01-29 22:31:00,51.3,26.6,29.66,WSW,244,15.0,15.0,38,0.00,,---,0.00,VWS V14.01,2013-01-30 04:31:00,
2013-01-29 22:34:00,51.2,26.5,29.67,SW,229,11.0,17.0,38,0.00,,---,0.00,VWS V14.01,2013-01-30 04:34:00,
2013-01-29 22:40:00,51.2,26.5,29.67,SW,235,10.0,21.0,38,0.00,,---,0.00,VWS V14.01,2013-01-30 04:40:00,
2013-01-29 22:43:00,51.1,26.4,29.67,WSW,248,5.0,21.0,38,0.00,,---,0.00,VWS V14.01,2013-01-30 04:43:00,
2013-01-29 22:46:00,51.0,26.3,29.67,West,259,13.0,21.0,38,0.00,,---,0.00,VWS V14.01,2013-01-30 04:46:00,
2013-01-29 22:49:00,50.9,26.2,29.67,WSW,246,9.0,21.0,38,0.00,,---,0.00,VWS V14.01,2013-01-30 04:49:00,
2013-01-29 22:52:00,50.8,26.1,29.68,WSW,254,12.0,21.0,38,0.00,,---,0.00,VWS V14.01,2013-01-30 04:52:00,
2013-01-29 22:55:00,50.8,26.1,29.68,WSW,252,9.0,21.0,38,0.00,,---,0.00,VWS V14.01,2013-01-30 04:55:00,
2013-01-29 22:58:00,50.7,26.7,29.68,WSW,252,8.0,21.0,39,0.00,,---,0.00,VWS V14.01,2013-01-30 04:58:00,
2013-01-29 23:00:00,50.7,26.0,29.68,WSW,252,12.0,21.0,38,0.00,,---,0.00,VWS V14.01,2013-01-30 05:00:00,
2013-01-29 23:01:00,50.7,26.0,29.68,WSW,253,10.0,17.0,38,0.00,,---,0.00,VWS V14.01,2013-01-30 05:01:00,
2013-01-29 23:04:00,50.8,26.1,29.68,WSW,245,9.0,17.0,38,0.00,,---,0.00,VWS V14.01,2013-01-30 05:04:00,
2013-01-29 23:07:00,50.8,26.1,29.68,West,273,9.0,17.0,38,0.00,,---,0.00,VWS V14.01,2013-01-30 05:07:00,
2013-01-29 23:10:00,50.8,26.1,29.68,West,259,12.0,21.0,38,0.00,,---,0.00,VWS V14.01,2013-01-30 05:10:00,
2013-01-29 23:13:00,50.9,26.2,29.68,WNW,301,11.0,21.0,38,0.00,,---,0.00,VWS V14.01,2013-01-30 05:13:00,
2013-01-29 23:16:00,50.6,25.3,29.68,WSW,256,10.0,21.0,37,0.00,,---,0.00,VWS V14.01,2013-01-30 05:16:00,
2013-01-29 23:19:00,50.5,25.9,29.68,West,263,10.0,21.0,38,0.00,,---,0.00,VWS V14.01,2013-01-30 05:19:00,
2013-01-29 23:22:00,50.5,25.2,29.68,WSW,255,17.0,22.0,37,0.00,,---,0.00,VWS V14.01,2013-01-30 05:22:00,
2013-01-29 23:25:00,50.7,25.4,29.68,WSW,251,16.0,25.0,37,0.00,,---,0.00,VWS V14.01,2013-01-30 05:25:00,
2013-01-29 23:28:00,50.6,25.3,29.68,WSW,256,11.0,25.0,37,0.00,,---,0.00,VWS V14.01,2013-01-30 05:28:00,
2013-01-29 23:30:00,50.6,25.3,29.68,West,259,8.0,25.0,37,0.00,,---,0.00,VWS V14.01,2013-01-30 05:30:00,
2013-01-29 23:31:00,50.5,25.2,29.68,WSW,251,11.0,19.0,37,0.00,,---,0.00,VWS V14.01,2013-01-30 05:31:00,
2013-01-29 23:34:00,50.4,25.1,29.68,West,278,13.0,19.0,37,0.00,,---,0.00,VWS V14.01,2013-01-30 05:34:00,
2013-01-29 23:37:00,50.4,25.1,29.68,WSW,258,20.0,23.0,37,0.00,,---,0.00,VWS V14.01,2013-01-30 05:37:00,
2013-01-29 23:40:00,50.3,24.4,29.68,West,275,22.0,26.0,36,0.00,,---,0.00,VWS V14.01,2013-01-30 05:40:00,
2013-01-29 23:43:00,50.3,24.4,29.68,WNW,283,14.0,26.0,36,0.00,,---,0.00,VWS V14.01,2013-01-30 05:43:00,
2013-01-29 23:46:00,50.4,23.8,29.69,WNW,298,18.0,30.0,35,0.00,,---,0.00,VWS V14.01,2013-01-30 05:46:00,
2013-01-29 23:49:00,50.3,23.7,29.69,WNW,289,15.0,30.0,35,0.00,,---,0.00,VWS V14.01,2013-01-30 05:49:00,
2013-01-29 23:52:00,50.1,23.5,29.69,WSW,250,15.0,30.0,35,0.00,,---,0.00,VWS V14.01,2013-01-30 05:52:00,
2013-01-29 23:55:00,49.9,23.4,29.69,WSW,240,13.0,30.0,35,0.00,,---,0.00,VWS V14.01,2013-01-30 05:55:00,
2013-01-29 23:59:00,49.8,23.3,29.70,WSW,242,14.0,30.0,35,0.00,,---,0.00,VWS V14.01,2013-01-30 05:59:00,